Location: Astor
(29.1620°N, 81.5260°W)
Time: 06:32:31
(UTC-04:00)

N. Korean satellite - Visible Passes

Search period start: 17 October 2018 00:00
Search period end: 27 October 2018 00:00
Orbit: 459 x 510 km, 97.2° (Epoch: 16 October)

Date Brightness Start Highest point End Pass type
(mag) Time Alt. Az. Time Alt. Az. Time Alt. Az.
17 Oct 6.9 19:14:09 10° S 19:17:49 76° W 19:21:32 10° NNW visible
18 Oct 10.3 06:48:52 10° ENE 06:50:44 14° E 06:52:36 10° SE visible
19 Oct 9.9 20:00:04 10° SW 20:02:30 17° W 20:04:58 10° NW visible
20 Oct 8.4 19:34:34 10° SSW 19:38:00 36° W 19:41:28 10° NNW visible
21 Oct 6.7 19:09:53 10° S 19:13:35 88° WSW 19:17:20 10° NNW visible
22 Oct 10.4 06:45:06 10° ENE 06:46:27 12° E 06:47:47 10° ESE visible
23 Oct 9.7 19:55:31 10° SW 19:58:12 19° W 20:00:56 10° NW visible
24 Oct 8.1 19:30:12 10° S 19:33:44 42° W 19:37:17 10° NNW visible
25 Oct 9.6 07:03:49 10° NE 07:06:40 22° E 07:09:28 10° SSE visible
25 Oct 6.6 19:05:36 10° SSE 19:09:18 81° ENE 19:13:03 10° N visible
